Lid_Strength_Index
-2 -2 -1 -1 -2 -2 -2 -2 -2 -2 -2 -2 -2 -2 -2 -2 -1 -1 -1 -1 -2 -2 -2 -1 -1 -1 -2 -2 -2 -2 -2 -2 -2
-1 -1 -1 -2 -2 -2 -2 -2 -2 -1 -2 -2 -2 -2 -1 -1 -1 -1 -1 -1 -2 -2 -2 -2 -2 -2 -2 -2 -2 -2 -2 -2 -2
-1 -1 -2 -2 -2 -2 -2 -2 -2 -2 -2 -2 -2 -1 -1 -1 -1 -1 -1 -2 -2 -2 -2 -2 -2 -2 -2 -2 -2 -2 -1 -1 -1
-1 -2 -2 -2 -2 -2 -2 -2 -2 -2 -2 -2 -2 -1 -1 -1 -1 -0 -1 -2 -2 -2 -2 -1 -1 -1 -1 -1 -1 -1 -1 -1 -1
-1 -1 -1 -2 -2 -2 -2 -2 -2 -2 -2 -2 -2 -1 -1 -1 -1 -0 -1 -2 -2 -2 -1 -1 -1 -1 -1 -1 -1 -1 -0 -0 -0
-1 0 -0 -1 -2 -2 -2 -2 -2 -2 -2 -2 -1 -0 -0 -0 -1 -1 -2 -2 -2 -1 -1 -1 -1 -1 -0 -0 -0 -0 -0 0 0
-0 1 1 -1 -1 -2 -2 -2 -2 -1 -1 -1 0 0 0 -0 -0 -1 -2 -2 -2 -1 -1 -1 -0 -0 -0 0 0 0 0 0 0
0 1 1 -0 -0 -1 -1 -1 -1 -1 -0 0 0 0 0 -0 -0 -1 -2 -1 -1 -1 -1 -0 -0 -0 0 0 0 0 1 1 1
0 1 1 0 -0 -1 -1 -0 -0 0 1 1 1 1 0 0 0 -1 -1 -1 -1 -1 -1 -0 -0 0 0 1 1 1 1 1 1
0 1 1 1 1 -0 -0 1 1 1 1 1 1 1 1 0 0 -0 -0 -1 -1 -0 -1 -0 -0 0 0 1 1 1 1 1 1
1 1 2 2 1 1 1 1 1 1 1 2 1 1 1 1 0 0 -0 -0 -1 -0 -0 -0 -0 0 0 1 1 1 1 2 1
1 1 2 2 3 2 2 3 3 2 2 2 2 2 2 1 1 1 1 1 1 0 -0 -0 0 0 0 1 1 1 2 2 2
1 2 2 3 4 3 3 3 3 4 2 3 3 2 2 2 2 1 2 2 2 1 0 0 0 0 1 1 1 2 2 3 3
0 2 2 4 5 4 3 4 4 5 4 3 4 3 3 3 3 2 3 3 2 1 1 1 1 1 1 1 1 3 3 3 3
1 2 3 4 5 5 4 4 4 6 6 7 7 6 5 4 4 3 4 4 3 3 3 2 2 1 1 1 2 2 3 3 3
4 2 3 4 5 5 4 5 7 9 8 9 10 10 8 7 6 5 5 5 5 4 4 3 3 2 1 2 2 2 3 3 4
4 2 3 4 5 6 5 5 7 9 7 7 10 10 9 10 10 8 7 6 6 6 5 5 4 4 3 3 3 2 3 3 4
6 2 3 4 5 6 6 6 6 9 8 6 8 11 9 10 12 11 9 8 8 8 8 7 7 6 6 5 5 5 5 4 4
5 3 3 4 5 6 6 6 6 7 9 7 12 10 10 9 12 13 12 11 10 10 10 10 9 8 7 8 7 6 6 5 5
6 3 3 4 5 6 6 6 6 7 7 8 12 13 14 12 12 12 12 13 12 11 11 11 11 10 9 8 8 7 6 6 6